Weather History for KRPD - March, 2013

Change the Weather History Date:

Sunday, March 24, 2013

  Actual Average Record
Temperature  
Mean Temperature 24 °F -  
Max Temperature 32 °F 40 °F 66 °F (2012)
Min Temperature 17 °F 23 °F -2 °F (2014)
Degree Days  
Heating Degree Days 40    
Moisture  
Dew Point 20 °F    
Average Humidity 75    
Maximum Humidity 86    
Minimum Humidity 60    
Precipitation  
Precipitation 0.00 in - - ()
Sea Level Pressure  
Sea Level Pressure 30.03 in    
Wind  
Wind Speed 8 mph (NNE)    
Max Wind Speed 20 mph    
Max Gust Speed 29 mph    
Visibility 10 miles    
Events      
Averages and records for this station are not official NWS values.
T = Trace of Precipitation, MM = Missing Value Source: NWS Daily Summary

Daily Weather History Graph

Daily Weather History Graph

Search for Another Location

Airport or City:

Trip Planner

Search our weather history database for the weather conditions in past years. The results will help you decide how hot, cold, wet, or windy it might be!

Date:

Astronomy

Mar. 24, 2013 Rise Set
Actual Time 7:02 AM CDT 7:25 PM CDT
Civil Twilight 6:32 AM CDT 7:54 PM CDT
Nautical Twilight 5:57 AM CDT 8:29 PM CDT
Astronomical Twilight 5:21 AM CDT 9:05 PM CDT
Moon 4:48 PM CDT (3/24) 5:19 AM CDT (3/24)
Length of Visible Light 13h 22m
Length of Day
12h 23m
Waxing Gibbous, 92% of the Moon is Illuminated
Mar 24
Waxing Gibbous
Mar 27
Full
Apr 2
Last Quarter
Apr 10
New
Apr 18
First Quarter

Hourly Weather History & Observations

Time (CDT) Temp. Windchill Dew Point Humidity Pressure Visibility Wind Dir Wind Speed Gust Speed Precip Events Conditions
12:15 AM 26.6 °F - 19.4 °F 74% 30.10 in 10.0 mi Calm Calm - N/A   Scattered Clouds
12:35 AM 26.6 °F 22.6 °F 19.4 °F 74% 30.10 in 10.0 mi North 3.5 mph - N/A   Mostly Cloudy
1:15 AM 23.0 °F - 19.4 °F 86% 30.10 in 10.0 mi Calm Calm - N/A   Overcast
1:35 AM 26.6 °F - 19.4 °F 74% 30.09 in 10.0 mi Calm Calm - N/A   Overcast
1:55 AM 23.0 °F 12.4 °F 19.4 °F 86% 30.07 in 10.0 mi NE 10.4 mph - N/A   Scattered Clouds
2:15 AM 26.6 °F 19.1 °F 19.4 °F 74% 30.08 in 10.0 mi NNE 6.9 mph - N/A   Clear
2:35 AM 26.6 °F 18.2 °F 17.6 °F 69% 30.08 in 10.0 mi North 8.1 mph - N/A   Clear
3:15 AM 23.0 °F 13.9 °F 17.6 °F 80% 30.07 in 10.0 mi NNE 8.1 mph - N/A   Clear
3:35 AM 23.0 °F 15.8 °F 17.6 °F 80% 30.06 in 10.0 mi North 5.8 mph - N/A   Clear
3:55 AM 19.4 °F 8.6 °F 14.0 °F 80% 30.06 in 10.0 mi North 9.2 mph - N/A   Clear
4:15 AM 23.0 °F 13.1 °F 17.6 °F 80% 30.06 in 10.0 mi North 9.2 mph - N/A   Clear
4:35 AM 21.2 °F 11.7 °F 17.6 °F 86% 30.05 in 10.0 mi NNE 8.1 mph - N/A   Clear
4:55 AM 21.2 °F 12.6 °F 15.8 °F 80% 30.06 in 10.0 mi North 6.9 mph - N/A   Clear
5:15 AM 21.2 °F 13.6 °F 15.8 °F 80% 30.06 in 10.0 mi North 5.8 mph - N/A   Clear
5:35 AM 17.6 °F - 14.0 °F 86% 30.06 in 10.0 mi Calm Calm - N/A   Clear
5:55 AM 17.6 °F 12.3 °F 14.0 °F 86% 30.05 in 10.0 mi North 3.5 mph - N/A   Clear
6:15 AM 21.2 °F 14.9 °F 17.6 °F 86% 30.06 in 10.0 mi North 4.6 mph - N/A   Scattered Clouds
6:35 AM 19.4 °F 10.4 °F 14.0 °F 80% 30.05 in 10.0 mi North 6.9 mph - N/A   Mostly Cloudy
7:15 AM 21.2 °F 12.6 °F 17.6 °F 86% 30.05 in 10.0 mi North 6.9 mph - N/A   Overcast
7:35 AM 23.0 °F 14.7 °F 17.6 °F 80% 30.05 in 10.0 mi North 6.9 mph - N/A   Overcast
7:55 AM 23.0 °F 15.8 °F 19.4 °F 86% 30.05 in 10.0 mi North 5.8 mph - N/A   Overcast
8:15 AM 23.0 °F 13.9 °F 19.4 °F 86% 30.05 in 10.0 mi North 8.1 mph - N/A   Overcast
8:35 AM 24.8 °F 15.3 °F 19.4 °F 80% 30.05 in 10.0 mi North 9.2 mph - N/A   Overcast
8:55 AM 26.6 °F 17.5 °F 19.4 °F 74% 30.04 in 10.0 mi North 9.2 mph - N/A   Overcast
9:15 AM 26.6 °F 17.5 °F 19.4 °F 74% 30.04 in 10.0 mi NNE 9.2 mph - N/A   Overcast
9:35 AM 26.6 °F 17.5 °F 19.4 °F 74% 30.04 in 10.0 mi NNE 9.2 mph - N/A   Overcast
9:55 AM 26.6 °F 16.2 °F 19.4 °F 74% 30.04 in 10.0 mi NNE 11.5 mph - N/A   Overcast
10:15 AM 28.4 °F 19.1 °F 21.2 °F 74% 30.04 in 10.0 mi NNE 10.4 mph - N/A   Overcast
10:35 AM 28.4 °F 18.0 °F 21.2 °F 74% 30.04 in 10.0 mi NNE 12.7 mph - N/A   Overcast
10:55 AM 28.4 °F 19.7 °F 21.2 °F 74% 30.03 in 10.0 mi NE 9.2 mph - N/A   Overcast
11:15 AM 28.4 °F 19.7 °F 21.2 °F 74% 30.03 in 10.0 mi NE 9.2 mph - N/A   Overcast
11:35 AM 28.4 °F 21.2 °F 21.2 °F 74% 30.03 in 10.0 mi NE 6.9 mph - N/A   Overcast
12:15 PM 30.2 °F 21.3 °F 21.2 °F 69% 30.01 in 10.0 mi NE 10.4 mph - N/A   Overcast
12:35 PM 30.2 °F 21.3 °F 21.2 °F 69% 30.01 in 10.0 mi NE 10.4 mph 16.1 mph N/A   Overcast
12:55 PM 30.2 °F 19.8 °F 21.2 °F 69% 30.01 in 10.0 mi NNE 13.8 mph - N/A   Overcast
1:15 PM 30.2 °F 19.8 °F 21.2 °F 69% 30.01 in 10.0 mi NNE 13.8 mph - N/A   Overcast
1:35 PM 30.2 °F 19.3 °F 21.2 °F 69% 30.00 in 10.0 mi NNE 15.0 mph 19.6 mph N/A   Overcast
1:55 PM 30.2 °F 20.8 °F 21.2 °F 69% 30.00 in 10.0 mi NNE 11.5 mph - N/A   Overcast
2:15 PM 30.2 °F 20.8 °F 21.2 °F 69% 30.00 in 10.0 mi NNE 11.5 mph - N/A   Overcast
2:55 PM 32.0 °F 22.5 °F 19.4 °F 60% 29.98 in 10.0 mi NNE 12.7 mph - N/A   Overcast
3:15 PM 32.0 °F 23.0 °F 19.4 °F 60% 29.98 in 10.0 mi NNE 11.5 mph - N/A   Overcast
3:35 PM 32.0 °F 22.5 °F 21.2 °F 64% 29.98 in 10.0 mi NNE 12.7 mph - N/A   Overcast
3:55 PM 32.0 °F 21.6 °F 21.2 °F 64% 29.97 in 10.0 mi North 15.0 mph 20.7 mph N/A   Overcast
4:15 PM 32.0 °F 21.6 °F 21.2 °F 64% 29.97 in 10.0 mi NNE 15.0 mph 20.7 mph N/A   Overcast
4:35 PM 32.0 °F 22.1 °F 21.2 °F 64% 29.96 in 10.0 mi North 13.8 mph - N/A   Overcast
4:55 PM 32.0 °F 21.6 °F 23.0 °F 69% 29.95 in 10.0 mi North 15.0 mph - N/A   Overcast
5:15 PM 32.0 °F 20.8 °F 23.0 °F 69% 29.95 in 10.0 mi North 17.3 mph 23.0 mph N/A   Overcast
5:35 PM 32.0 °F 22.5 °F 23.0 °F 69% 29.95 in 10.0 mi North 12.7 mph 20.7 mph N/A   Overcast
5:55 PM 32.0 °F 21.6 °F 23.0 °F 69% 29.96 in 10.0 mi North 15.0 mph 25.3 mph N/A   Overcast
6:15 PM 30.2 °F 17.8 °F 23.0 °F 75% 29.96 in 10.0 mi North 19.6 mph 25.3 mph N/A   Mostly Cloudy
6:35 PM 30.2 °F 18.9 °F 23.0 °F 75% 29.97 in 10.0 mi North 16.1 mph - N/A   Mostly Cloudy
7:15 PM 30.2 °F 19.3 °F 23.0 °F 75% 29.98 in 10.0 mi North 15.0 mph 21.9 mph N/A   Overcast
7:35 PM 30.2 °F 17.8 °F 23.0 °F 75% 29.98 in 10.0 mi NNE 19.6 mph - N/A   Overcast
8:15 PM 28.4 °F 17.0 °F 21.2 °F 74% 30.00 in 10.0 mi North 15.0 mph 19.6 mph N/A   Overcast
8:35 PM 28.4 °F 16.6 °F 21.2 °F 74% 30.01 in 10.0 mi North 16.1 mph - N/A   Overcast
8:55 PM 28.4 °F 15.4 °F 21.2 °F 74% 30.01 in 10.0 mi NNE 19.6 mph 28.8 mph N/A   Overcast
9:15 PM 28.4 °F 17.0 °F 21.2 °F 74% 30.02 in 10.0 mi NNE 15.0 mph 26.5 mph N/A   Overcast
9:35 PM 28.4 °F 17.0 °F 19.4 °F 69% 30.02 in 10.0 mi North 15.0 mph 20.7 mph N/A   Overcast
9:55 PM 26.6 °F 18.2 °F 19.4 °F 74% 30.02 in 10.0 mi North 8.1 mph - N/A   Scattered Clouds
10:15 PM 26.6 °F 19.1 °F 19.4 °F 74% 30.02 in 10.0 mi North 6.9 mph - N/A   Clear
10:35 PM 26.6 °F 19.1 °F 19.4 °F 74% 30.02 in 10.0 mi North 6.9 mph - N/A   Mostly Cloudy
10:55 PM 26.6 °F 17.5 °F 19.4 °F 74% 30.02 in 10.0 mi North 9.2 mph - N/A   Overcast
11:15 PM 23.0 °F 12.4 °F 17.6 °F 80% 30.02 in 10.0 mi North 10.4 mph - N/A   Overcast
11:35 PM 23.0 °F 12.4 °F 17.6 °F 80% 30.02 in 10.0 mi North 10.4 mph - N/A   Scattered Clouds